TimeCDT,TemperatureF,Dew PointF,Humidity,Sea Level PressureIn,VisibilityMPH,Wind Direction,Wind SpeedMPH,Gust SpeedMPH,PrecipitationIn,Events,Conditions,WindDirDegrees,DateUTC
12:53 AM,57.0,54.0,89,30.05,10.0,Calm,Calm,-,N/A,,Clear,0,2013-09-04 05:53:00
1:53 AM,55.0,54.0,96,30.05,10.0,Calm,Calm,-,N/A,,Clear,0,2013-09-04 06:53:00
2:53 AM,55.0,54.0,96,30.05,10.0,Calm,Calm,-,N/A,,Clear,0,2013-09-04 07:53:00
3:53 AM,54.0,53.1,97,30.06,10.0,Calm,Calm,-,N/A,,Clear,0,2013-09-04 08:53:00
4:53 AM,55.9,55.0,97,30.07,10.0,North,3.5,-,N/A,,Clear,10,2013-09-04 09:53:00
5:53 AM,57.0,55.0,93,30.08,10.0,WSW,3.5,-,N/A,,Clear,240,2013-09-04 10:53:00
6:53 AM,57.0,55.9,96,30.10,8.0,Calm,Calm,-,N/A,,Clear,0,2013-09-04 11:53:00
7:53 AM,60.1,57.9,93,30.11,10.0,Calm,Calm,-,N/A,,Clear,0,2013-09-04 12:53:00
8:53 AM,66.9,60.1,79,30.12,10.0,NNE,6.9,-,N/A,,Clear,30,2013-09-04 13:53:00
9:53 AM,70.0,61.0,73,30.12,10.0,ENE,5.8,-,N/A,,Clear,60,2013-09-04 14:53:00
10:53 AM,75.0,61.0,62,30.14,10.0,ENE,4.6,-,N/A,,Clear,60,2013-09-04 15:53:00
11:53 AM,78.1,61.0,56,30.14,10.0,ENE,5.8,-,N/A,,Clear,70,2013-09-04 16:53:00
12:53 PM,81.0,60.1,49,30.14,10.0,NE,10.4,-,N/A,,Clear,50,2013-09-04 17:53:00
1:53 PM,81.0,59.0,47,30.14,10.0,Calm,Calm,-,N/A,,Clear,0,2013-09-04 18:53:00
2:53 PM,82.0,59.0,45,30.12,10.0,Calm,Calm,-,N/A,,Clear,0,2013-09-04 19:53:00
3:53 PM,84.9,59.0,41,30.11,10.0,East,5.8,-,N/A,,Clear,80,2013-09-04 20:53:00
4:53 PM,84.0,59.0,43,30.11,10.0,NE,4.6,-,N/A,,Clear,50,2013-09-04 21:53:00
5:53 PM,79.0,62.1,56,30.12,10.0,ENE,11.5,19.6,N/A,,Clear,60,2013-09-04 22:53:00
6:53 PM,75.0,61.0,62,30.13,10.0,ENE,6.9,-,N/A,,Clear,70,2013-09-04 23:53:00
7:53 PM,71.1,61.0,70,30.14,10.0,Calm,Calm,-,N/A,,Clear,0,2013-09-05 00:53:00
8:53 PM,68.0,60.1,76,30.16,10.0,ENE,3.5,-,N/A,,Clear,60,2013-09-05 01:53:00
9:53 PM,66.9,57.9,73,30.17,10.0,Calm,Calm,-,N/A,,Clear,0,2013-09-05 02:53:00
10:53 PM,64.0,55.9,75,30.17,10.0,Calm,Calm,-,N/A,,Clear,0,2013-09-05 03:53:00
11:53 PM,62.1,55.0,78,30.19,10.0,Calm,Calm,-,N/A,,Clear,0,2013-09-05 04:53:00